Hourly Data Report for July 04, 2022

OTTAWA INTL A
ONTARIO
Current Station Operator: NAVCAN

45°19'00.000" N
75°40'00.000" W
114.90 m
6106001
71628
YOW

Download Data

Hourly Data (July 2022)
Hourly Data Report for July 4, 2022
TIME
LST
Temp Definition
°C
Dew Point Definition
°C
Rel Hum Definition
%
Precip. Amount Definition
mm

Wind Dir Definition
10's deg

Wind Spd Definition
km/h
Visibility Definition
km
Stn Press Definition
kPa
Hmdx Definition


Wind Chill Definition


Weather Definition


00:00 18.1 10.8 62   30 11 24.1 100.56     LegendNANA
01:00 17.0 11.2 68   31 12 24.1 100.56     Mostly Cloudy
02:00 13.8 11.3 85   24 13 24.1 100.60     LegendNANA
03:00 14.5 11.5 82   27 9 24.1 100.59     LegendNANA
04:00 14.2 11.6 84   23 7 24.1 100.64     Mainly Clear
05:00 13.9 11.7 87   28 9 24.1 100.69     LegendNANA
06:00 16.4 13.0 80   27 7 24.1 100.69     LegendNANA
07:00 18.1 12.8 71   29 8 24.1 100.70     Mainly Clear
08:00 19.7 11.8 60   27 4 24.1 100.71     LegendNANA
09:00 21.4 11.9 54   26 7 24.1 100.70     LegendNANA
10:00 23.3 10.8 45   26 8 24.1 100.68 25   Clear
11:00 22.5 10.6 46   36 3 24.1 100.65     LegendNANA
12:00 25.1 8.7 35   32 9 24.1 100.59 26   LegendNANA
13:00 25.4 8.6 34   25 13 24.1 100.57 26   Mainly Clear
14:00 26.5 8.4 31   30 25 24.1 100.53 27   LegendNANA
15:00 26.4 9.6 34   30 20 24.1 100.49 27   LegendNANA
16:00 25.5 9.1 35   31 15 24.1 100.45 26   Mostly Cloudy
17:00 24.9 9.5 37   28 14 24.1 100.41 26   LegendNANA
18:00 23.9 12.2 47   25 9 24.1 100.40 26   LegendNANA
19:00 23.0 11.8 49   23 5 24.1 100.40 25   Mostly Cloudy
20:00 20.1 13.6 66   17 9 24.1 100.39     LegendNANA
21:00 19.4 12.9 66   17 9 24.1 100.43     LegendNANA
22:00 18.9 12.5 66   19 9 24.1 100.40     Mostly Cloudy
23:00 17.7 12.4 71   20 10 24.1 100.41     LegendNANA

Notes on Data Quality.

Legend

  • E = Estimated
  • M = Missing
  • NA = Not Available*
  • [empty] = Indicates an unobserved value
Date modified: